Time,TemperatureF,DewpointF,PressureIn,WindDirection,WindDirectionDegrees,WindSpeedMPH,WindSpeedGustMPH,Humidity,HourlyPrecipIn,Conditions,Clouds,dailyrainin,SolarRadiationWatts/m^2,SoftwareType,DateUTC
2013-04-18 00:22:00,23.0,10.0,-100.00,NNE,19,6.0,8.0,57,0.00,,,0.01,0.000000,,2013-04-18 06:22:00,
2013-04-18 00:32:00,23.0,10.0,-100.00,NNE,19,6.0,8.0,57,0.00,,,0.01,0.000000,,2013-04-18 06:32:00,
2013-04-18 00:42:00,23.0,10.0,-100.00,NNE,19,6.0,8.0,57,0.00,,,0.01,0.000000,,2013-04-18 06:42:00,
2013-04-18 00:52:00,23.0,10.0,-100.00,NNE,19,6.0,8.0,57,0.00,,,0.01,0.000000,,2013-04-18 06:52:00,
2013-04-18 01:22:00,23.0,10.0,-100.00,ENE,78,1.0,5.0,58,0.00,,,0.01,0.000000,,2013-04-18 07:22:00,
2013-04-18 01:32:00,23.0,10.0,-100.00,ENE,78,1.0,5.0,58,0.00,,,0.01,0.000000,,2013-04-18 07:32:00,
2013-04-18 01:42:00,23.0,10.0,-100.00,ENE,78,1.0,5.0,58,0.00,,,0.01,0.000000,,2013-04-18 07:42:00,
2013-04-18 01:52:00,23.0,10.0,-100.00,ENE,78,1.0,5.0,58,0.00,,,0.01,0.000000,,2013-04-18 07:52:00,
2013-04-18 02:22:00,21.0,11.0,-100.00,NE,39,3.0,5.0,64,0.00,,,0.01,0.000000,,2013-04-18 08:22:00,
2013-04-18 02:32:00,21.0,11.0,-100.00,NE,39,3.0,5.0,64,0.00,,,0.01,0.000000,,2013-04-18 08:32:00,
2013-04-18 02:42:00,21.0,11.0,-100.00,NE,39,3.0,5.0,64,0.00,,,0.01,0.000000,,2013-04-18 08:42:00,
2013-04-18 02:52:00,21.0,11.0,-100.00,NE,39,3.0,5.0,64,0.00,,,0.01,0.000000,,2013-04-18 08:52:00,
2013-04-18 03:22:00,20.0,11.0,-100.00,NNE,25,4.0,7.0,67,0.00,,,0.01,0.000000,,2013-04-18 09:22:00,
2013-04-18 03:32:00,20.0,11.0,-100.00,NNE,25,4.0,7.0,67,0.00,,,0.01,0.000000,,2013-04-18 09:32:00,
2013-04-18 03:42:00,20.0,11.0,-100.00,NNE,25,4.0,7.0,67,0.00,,,0.01,0.000000,,2013-04-18 09:42:00,
2013-04-18 03:52:00,20.0,11.0,-100.00,NNE,25,4.0,7.0,67,0.00,,,0.01,0.000000,,2013-04-18 09:52:00,
2013-04-18 04:23:00,19.0,10.0,-100.00,NNE,23,4.0,8.0,66,0.00,,,0.01,0.000000,,2013-04-18 10:23:00,
2013-04-18 04:32:00,19.0,10.0,-100.00,NNE,23,4.0,8.0,66,0.00,,,0.01,0.000000,,2013-04-18 10:32:00,
2013-04-18 04:42:00,19.0,10.0,-100.00,NNE,23,4.0,8.0,66,0.00,,,0.01,0.000000,,2013-04-18 10:42:00,
2013-04-18 04:52:00,19.0,10.0,-100.00,NNE,23,4.0,8.0,66,0.00,,,0.01,0.000000,,2013-04-18 10:52:00,
2013-04-18 05:22:00,19.0,6.0,-100.00,NNW,345,3.0,8.0,55,0.00,,,0.01,0.000000,,2013-04-18 11:22:00,
2013-04-18 05:32:00,19.0,6.0,-100.00,NNW,345,3.0,8.0,55,0.00,,,0.01,0.000000,,2013-04-18 11:32:00,
2013-04-18 05:42:00,19.0,6.0,-100.00,NNW,345,3.0,8.0,55,0.00,,,0.01,0.000000,,2013-04-18 11:42:00,
2013-04-18 05:52:00,19.0,6.0,-100.00,NNW,345,3.0,8.0,55,0.00,,,0.01,0.000000,,2013-04-18 11:52:00,
2013-04-18 06:22:00,19.0,3.0,-100.00,NNE,31,3.0,7.0,49,0.00,,,0.01,0.000000,,2013-04-18 12:22:00,
2013-04-18 06:32:00,19.0,3.0,-100.00,NNE,31,3.0,7.0,49,0.00,,,0.01,0.000000,,2013-04-18 12:32:00,
2013-04-18 06:42:00,19.0,3.0,-100.00,NNE,31,3.0,7.0,49,0.00,,,0.01,0.000000,,2013-04-18 12:42:00,
2013-04-18 06:52:00,19.0,3.0,-100.00,NNE,31,3.0,7.0,49,0.00,,,0.01,0.000000,,2013-04-18 12:52:00,
2013-04-18 07:22:00,18.0,5.0,-100.00,NNE,30,2.0,8.0,55,0.00,,,0.01,4.000000,,2013-04-18 13:22:00,
2013-04-18 07:32:00,18.0,5.0,-100.00,NNE,30,2.0,8.0,55,0.00,,,0.01,4.000000,,2013-04-18 13:32:00,
2013-04-18 07:42:00,18.0,5.0,-100.00,NNE,30,2.0,8.0,55,0.00,,,0.01,4.000000,,2013-04-18 13:42:00,
2013-04-18 07:52:00,18.0,5.0,-100.00,NNE,30,2.0,8.0,55,0.00,,,0.01,4.000000,,2013-04-18 13:52:00,
2013-04-18 08:42:00,23.0,10.0,-100.00,NNE,32,0.0,4.0,58,0.00,,,0.00,60.000000,,2013-04-18 14:42:00,
2013-04-18 08:52:00,23.0,10.0,-100.00,NNE,32,0.0,4.0,58,0.00,,,0.00,60.000000,,2013-04-18 14:52:00,
2013-04-18 09:22:00,27.0,10.0,-100.00,South,190,3.0,6.0,49,0.00,,,0.00,367.000000,,2013-04-18 15:22:00,
2013-04-18 09:33:00,27.0,10.0,-100.00,South,190,3.0,6.0,49,0.00,,,0.00,367.000000,,2013-04-18 15:33:00,
2013-04-18 09:42:00,27.0,10.0,-100.00,South,190,3.0,6.0,49,0.00,,,0.00,367.000000,,2013-04-18 15:42:00,
2013-04-18 09:52:00,27.0,10.0,-100.00,South,190,3.0,6.0,49,0.00,,,0.00,367.000000,,2013-04-18 15:52:00,
2013-04-18 10:22:00,31.0,3.0,-100.00,South,185,5.0,11.0,29,0.00,,,0.00,584.000000,,2013-04-18 16:22:00,
2013-04-18 10:33:00,31.0,3.0,-100.00,South,185,5.0,11.0,29,0.00,,,0.00,584.000000,,2013-04-18 16:33:00,
2013-04-18 10:42:00,31.0,3.0,-100.00,South,185,5.0,11.0,29,0.00,,,0.00,584.000000,,2013-04-18 16:42:00,
2013-04-18 10:52:00,31.0,3.0,-100.00,South,185,5.0,11.0,29,0.00,,,0.00,584.000000,,2013-04-18 16:52:00,
2013-04-18 11:22:00,30.0,2.0,-100.00,West,277,8.0,15.0,29,0.00,,,0.00,686.000000,,2013-04-18 17:22:00,
2013-04-18 11:33:00,30.0,2.0,-100.00,West,277,8.0,15.0,29,0.00,,,0.00,686.000000,,2013-04-18 17:33:00,
2013-04-18 11:42:00,30.0,2.0,-100.00,West,277,8.0,15.0,29,0.00,,,0.00,686.000000,,2013-04-18 17:42:00,
2013-04-18 11:52:00,30.0,2.0,-100.00,West,277,8.0,15.0,29,0.00,,,0.00,686.000000,,2013-04-18 17:52:00,
2013-04-18 12:22:00,34.0,1.0,-100.00,SW,232,7.0,17.0,24,0.00,,,0.00,663.000000,,2013-04-18 18:22:00,
2013-04-18 12:32:00,34.0,1.0,-100.00,SW,232,7.0,17.0,24,0.00,,,0.00,663.000000,,2013-04-18 18:32:00,
2013-04-18 12:42:00,34.0,1.0,-100.00,SW,232,7.0,17.0,24,0.00,,,0.00,663.000000,,2013-04-18 18:42:00,
2013-04-18 12:52:00,34.0,1.0,-100.00,SW,232,7.0,17.0,24,0.00,,,0.00,663.000000,,2013-04-18 18:52:00,
2013-04-18 13:22:00,35.0,-3.0,-100.00,SW,227,8.0,15.0,19,0.00,,,0.00,765.000000,,2013-04-18 19:22:00,
2013-04-18 13:32:00,35.0,-3.0,-100.00,SW,227,8.0,15.0,19,0.00,,,0.00,765.000000,,2013-04-18 19:32:00,
2013-04-18 13:42:00,35.0,-3.0,-100.00,SW,227,8.0,15.0,19,0.00,,,0.00,765.000000,,2013-04-18 19:42:00,
2013-04-18 13:52:00,35.0,-3.0,-100.00,SW,227,8.0,15.0,19,0.00,,,0.00,765.000000,,2013-04-18 19:52:00,
2013-04-18 14:22:00,36.0,-7.0,-100.00,SW,223,4.0,17.0,15,0.00,,,0.00,581.000000,,2013-04-18 20:22:00,
2013-04-18 14:32:00,36.0,-7.0,-100.00,SW,223,4.0,17.0,15,0.00,,,0.00,581.000000,,2013-04-18 20:32:00,
2013-04-18 14:42:00,36.0,-7.0,-100.00,SW,223,4.0,17.0,15,0.00,,,0.00,581.000000,,2013-04-18 20:42:00,
2013-04-18 14:52:00,36.0,-7.0,-100.00,SW,223,4.0,17.0,15,0.00,,,0.00,581.000000,,2013-04-18 20:52:00,
2013-04-18 15:22:00,42.0,-13.0,-100.00,WNW,302,9.0,22.0,9,0.00,,,0.00,979.000000,,2013-04-18 21:22:00,
2013-04-18 15:52:00,42.0,-13.0,-100.00,WNW,302,9.0,22.0,9,0.00,,,0.00,979.000000,,2013-04-18 21:52:00,
2013-04-18 16:22:00,41.0,-16.0,-100.00,West,279,7.0,20.0,8,0.00,,,-99.99,881.000000,,2013-04-18 22:22:00,
2013-04-18 16:32:00,41.0,-16.0,-100.00,West,279,7.0,20.0,8,0.00,,,-99.99,881.000000,,2013-04-18 22:32:00,
2013-04-18 19:21:00,38.0,-12.0,-100.00,WNW,291,6.0,17.0,11,0.00,,,0.00,271.000000,,2013-04-19 01:21:00,
2013-04-18 19:31:00,38.0,-12.0,-100.00,WNW,291,6.0,17.0,11,0.00,,,0.00,271.000000,,2013-04-19 01:31:00,
2013-04-18 19:42:00,38.0,-12.0,-100.00,WNW,291,6.0,17.0,11,0.00,,,0.00,271.000000,,2013-04-19 01:42:00,
2013-04-18 19:52:00,38.0,-12.0,-100.00,WNW,291,6.0,17.0,11,0.00,,,0.00,271.000000,,2013-04-19 01:52:00,
2013-04-18 20:21:00,31.0,-11.0,-100.00,East,89,2.0,9.0,15,0.00,,,0.00,57.000000,,2013-04-19 02:21:00,
2013-04-18 20:32:00,31.0,-11.0,-100.00,East,89,2.0,9.0,15,0.00,,,0.00,57.000000,,2013-04-19 02:32:00,
2013-04-18 20:42:00,31.0,-11.0,-100.00,East,89,2.0,9.0,15,0.00,,,0.00,57.000000,,2013-04-19 02:42:00,
2013-04-18 20:51:00,31.0,-11.0,-100.00,East,89,2.0,9.0,15,0.00,,,0.00,57.000000,,2013-04-19 02:51:00,
2013-04-18 21:21:00,27.0,-9.0,-100.00,NNE,18,4.0,7.0,20,0.00,,,0.00,0.000000,,2013-04-19 03:21:00,
2013-04-18 21:32:00,27.0,-9.0,-100.00,NNE,18,4.0,7.0,20,0.00,,,0.00,0.000000,,2013-04-19 03:32:00,
2013-04-18 21:43:00,27.0,-9.0,-100.00,NNE,18,4.0,7.0,20,0.00,,,0.00,0.000000,,2013-04-19 03:43:00,
2013-04-18 21:53:00,27.0,-9.0,-100.00,NNE,18,4.0,7.0,20,0.00,,,0.00,0.000000,,2013-04-19 03:53:00,
2013-04-18 22:23:00,26.0,-9.0,-100.00,NE,36,1.0,7.0,20,0.00,,,0.00,0.000000,,2013-04-19 04:23:00,
2013-04-18 22:33:00,26.0,-9.0,-100.00,NE,36,1.0,7.0,20,0.00,,,0.00,0.000000,,2013-04-19 04:33:00,
2013-04-18 22:52:00,26.0,-9.0,-100.00,NE,36,1.0,7.0,20,0.00,,,0.00,0.000000,,2013-04-19 04:52:00,
2013-04-18 23:22:00,25.0,-9.0,-100.00,North,9,4.0,9.0,21,0.00,,,0.00,0.000000,,2013-04-19 05:22:00,
2013-04-18 23:32:00,25.0,-9.0,-100.00,North,9,4.0,9.0,21,0.00,,,0.00,0.000000,,2013-04-19 05:32:00,